Volver al catálogo

COSMOS 2251 DEB

ActivoLEO
NORAD 33986·DEBRIS·🇷🇺 Russia

Lanzado Jun 16, 1993 desde Plesetsk Cosmodrome

Loading…

Próximos Pases (próximas 24 horas)

TLE

ActualizadoSource: Space-Track

Época: Sep 14, 2026, 03:51 UTC

1 33986U 93036FV  26257.16085942  .00001029  00000-0  30427-3 0  9998
2 33986  74.0354 150.5775 0041403 160.2632 351.4043 14.44240024920035

Sigue COSMOS 2251 DEB en tiempo real con AllMySat

Download on the App Store